TimeCET,TemperatureF,Dew PointF,Humidity,Sea Level PressureIn,VisibilityMPH,Wind Direction,Wind SpeedMPH,Gust SpeedMPH,PrecipitationIn,Events,Conditions,WindDirDegrees,DateUTC
12:00 AM,23.0,19.4,86,30.04,3.1,WSW,5.8,-,N/A,,Overcast,240,2012-12-11 23:00:00
12:30 AM,23.0,19.4,86,30.04,3.1,SSW,3.5,-,N/A,,Overcast,210,2012-12-11 23:30:00
1:00 AM,23,20,83,30.12,3,West,4.5,,,Snow,Light Snow,260,2012-12-12 00:00:00
1:00 AM,23.0,21.2,93,30.04,3.1,West,3.5,-,N/A,Snow,Light Snow,260,2012-12-12 00:00:00
1:30 AM,23.0,19.4,86,30.04,3.1,WSW,4.6,-,N/A,Snow,Light Snow,250,2012-12-12 00:30:00
2:00 AM,23.0,21.2,93,30.06,2.5,Variable,1.2,-,N/A,Snow,Light Snow,0,2012-12-12 01:00:00
2:37 AM,23.0,21.2,93,30.06,-9999.0,West,2.3,-,N/A,Snow,Light Snow,260,2012-12-12 01:37:00
3:00 AM,23.0,21.2,93,30.06,-9999.0,SW,2.3,-,N/A,Snow,Light Snow,230,2012-12-12 02:00:00
3:30 AM,23.0,21.2,93,30.06,2.8,Variable,2.3,-,N/A,Snow,Light Snow,0,2012-12-12 02:30:00
4:00 AM,23.0,21.2,93,30.06,2.8,Variable,2.3,-,N/A,Snow,Light Snow,0,2012-12-12 03:00:00
4:30 AM,23.0,21.2,93,30.06,3.1,SW,3.5,-,N/A,Snow,Light Snow,220,2012-12-12 03:30:00
5:00 AM,23.0,21.2,93,30.06,3.1,WSW,4.6,-,N/A,Snow,Light Snow,250,2012-12-12 04:00:00
5:30 AM,23.0,21.2,93,30.06,-9999.0,WSW,3.5,-,N/A,Snow,Light Snow,250,2012-12-12 04:30:00
6:00 AM,23.0,21.2,93,30.06,1.9,SW,4.6,-,N/A,Snow,Light Snow,230,2012-12-12 05:00:00
6:30 AM,23.0,21.2,93,30.06,1.9,SW,4.6,-,N/A,Snow,Light Snow,230,2012-12-12 05:30:00
7:00 AM,23,21,88,30.14,2,SW,4.5,,,Snow,Light Snow,220,2012-12-12 06:00:00
7:00 AM,23.0,21.2,93,30.06,1.6,SSW,4.6,-,N/A,Snow,Light Snow,210,2012-12-12 06:00:00
7:30 AM,23.0,21.2,93,30.06,1.6,SW,5.8,-,N/A,Snow,Light Snow,230,2012-12-12 06:30:00
8:00 AM,23.0,21.2,93,30.06,1.9,SW,4.6,-,N/A,Snow,Light Snow,230,2012-12-12 07:00:00
8:30 AM,23.0,21.2,93,30.09,2.2,SW,5.8,-,N/A,Snow,Light Snow,230,2012-12-12 07:30:00
9:00 AM,23.0,21.2,93,30.09,2.2,SW,4.6,-,N/A,Snow,Light Snow,220,2012-12-12 08:00:00
9:22 AM,23.0,21.2,93,30.09,1.2,SW,3.5,-,N/A,Snow,Snow,230,2012-12-12 08:22:00
9:30 AM,23.0,21.2,93,30.09,1.2,SW,3.5,-,N/A,Snow,Snow,230,2012-12-12 08:30:00
10:00 AM,24.8,21.2,86,30.09,1.9,SW,4.6,-,N/A,Snow,Light Snow,220,2012-12-12 09:00:00
10:30 AM,24.8,23.0,93,30.09,2.5,SW,5.8,-,N/A,Snow,Light Snow,220,2012-12-12 09:30:00
11:00 AM,26.6,23.0,86,30.09,2.5,SW,4.6,-,N/A,Snow,Light Snow,220,2012-12-12 10:00:00
11:30 AM,26.6,23.0,86,30.09,2.5,SW,3.5,-,N/A,Snow,Light Snow,230,2012-12-12 10:30:00
12:00 PM,24.8,21.2,86,30.09,2.2,NNW,9.2,-,N/A,Snow,Light Snow,330,2012-12-12 11:00:00
12:30 PM,24.8,21.2,86,30.09,3.7,North,6.9,-,N/A,Snow,Light Snow,350,2012-12-12 11:30:00
1:00 PM,25,18,66,30.18,6,North,6.7,,,Snow,Light Snow,0,2012-12-12 12:00:00
1:00 PM,24.8,19.4,80,30.09,6.2,North,5.8,-,N/A,Snow,Light Snow,360,2012-12-12 12:00:00
1:30 PM,24.8,19.4,80,30.09,6.2,North,5.8,-,N/A,Snow,Light Snow,10,2012-12-12 12:30:00
2:00 PM,26.6,19.4,74,30.09,6.2,Variable,2.3,-,N/A,,Mostly Cloudy,0,2012-12-12 13:00:00
2:30 PM,24.8,19.4,80,30.09,6.2,Variable,2.3,-,N/A,,Overcast,0,2012-12-12 13:30:00
3:00 PM,24.8,17.6,74,30.09,6.2,Variable,2.3,-,N/A,,Mostly Cloudy,0,2012-12-12 14:00:00
3:30 PM,24.8,19.4,80,30.09,6.2,Variable,2.3,-,N/A,,Mostly Cloudy,0,2012-12-12 14:30:00
4:00 PM,24.8,19.4,80,30.12,6.2,West,3.5,-,N/A,,Mostly Cloudy,270,2012-12-12 15:00:00
4:30 PM,23.0,17.6,80,30.12,6.2,Variable,2.3,-,N/A,,Mostly Cloudy,0,2012-12-12 15:30:00
5:00 PM,21.2,15.8,80,30.12,6.2,West,3.5,-,N/A,,Mostly Cloudy,260,2012-12-12 16:00:00
5:30 PM,21.2,17.6,86,30.12,6.2,West,2.3,-,N/A,,Mostly Cloudy,260,2012-12-12 16:30:00
6:00 PM,23.0,19.4,86,30.12,6.2,WSW,4.6,-,N/A,,Mostly Cloudy,250,2012-12-12 17:00:00
6:30 PM,21.2,19.4,93,30.12,6.2,WSW,4.6,-,N/A,,Mostly Cloudy,250,2012-12-12 17:30:00
7:00 PM,22,18,79,30.19,6,WSW,6.7,,,Snow,Light Snow,240,2012-12-12 18:00:00
7:00 PM,21.2,17.6,86,30.09,6.2,WSW,5.8,-,N/A,Snow,Light Snow,250,2012-12-12 18:00:00
7:30 PM,21.2,17.6,86,30.12,6.2,SW,6.9,-,N/A,Snow,Light Snow,230,2012-12-12 18:30:00
8:00 PM,21.2,17.6,86,30.09,6.2,SSW,6.9,-,N/A,Snow,Light Snow,210,2012-12-12 19:00:00
8:30 PM,21.2,17.6,86,30.12,6.2,SSW,5.8,-,N/A,Snow,Light Snow,210,2012-12-12 19:30:00
9:00 PM,21.2,15.8,80,30.12,6.2,SSW,6.9,-,N/A,,Overcast,210,2012-12-12 20:00:00
9:30 PM,21.2,15.8,80,30.12,6.2,SSW,8.1,-,N/A,,Overcast,210,2012-12-12 20:30:00
10:00 PM,19.4,15.8,86,30.12,6.2,SSW,9.2,-,N/A,Snow,Light Snow,210,2012-12-12 21:00:00
10:30 PM,19.4,15.8,86,30.12,6.2,SW,9.2,-,N/A,,Overcast,220,2012-12-12 21:30:00
11:00 PM,17.6,12.2,79,30.12,6.2,SSW,5.8,-,N/A,,Mostly Cloudy,200,2012-12-12 22:00:00
11:30 PM,15.8,12.2,86,30.12,6.2,SSW,6.9,-,N/A,,Partly Cloudy,210,2012-12-12 22:30:00